Weather History for KSET - March, 2012

Change the Weather History Date:

Wednesday, March 21, 2012

  Actual Average (KSTL) Record (KSTL)
Temperature  
Mean Temperature 70 °F 48 °F  
Max Temperature 79 °F 58 °F 90 °F (1907)
Min Temperature 61 °F 38 °F 8 °F (1876)
Degree Days  
Heating Degree Days 0 17  
Month to date heating degree days 435  
Since 1 July heating degree days 4033  
Cooling Degree Days 5 0  
Month to date cooling degree days 0  
Year to date cooling degree days 0  
Growing Degree Days 20 (Base 50)    
Moisture  
Dew Point 55 °F    
Average Humidity 59    
Maximum Humidity 83    
Minimum Humidity 42    
Precipitation  
Precipitation 0.00 in 0.12 in 1.77 in (1948)
Month to date precipitation 2.10  
Year to date precipitation 6.74  
Snow  
Snow 0.00 in 0.00 in 1.20 in (2006)
Month to date snowfall 1.9  
Since 1 July snowfall 16.9  
Snow Depth -    
Sea Level Pressure  
Sea Level Pressure 29.94 in    
Wind  
Wind Speed 11 mph (SE)    
Max Wind Speed 26 mph    
Max Gust Speed 33 mph    
Visibility 10 miles    
Events      
T = Trace of Precipitation, MM = Missing Value Source: NWS Daily Summary

Daily Weather History Graph

Daily Weather History Graph

Search for Another Location

Airport or City:

Trip Planner

Search our weather history database for the weather conditions in past years. The results will help you decide how hot, cold, wet, or windy it might be!

Date:

Astronomy

Mar. 21, 2012 Rise Set
Actual Time 7:02 AM CDT 7:15 PM CDT
Civil Twilight 6:36 AM CDT 7:41 PM CDT
Nautical Twilight 6:05 AM CDT 8:13 PM CDT
Astronomical Twilight 5:33 AM CDT 8:44 PM CDT
Moon 6:13 AM CDT (3/21) 6:42 PM CDT (3/21)
Length of Visible Light 13h 05m
Length of Day
12h 12m
Waning Crescent, 1% of the Moon is Illuminated
Mar 21
Waning Crescent
Mar 22
New
Mar 30
First Quarter
Apr 6
Full
Apr 13
Last Quarter

Hourly Weather History & Observations

Time (CDT) Temp. Dew Point Humidity Pressure Visibility Wind Dir Wind Speed Gust Speed Precip Events Conditions
1:54 AM 64.9 °F 55.0 °F 70% 29.93 in 10.0 mi Calm Calm - N/A   Partly Cloudy
2:54 AM 61.0 °F 55.0 °F 81% 29.92 in 10.0 mi East 5.8 mph - N/A   Clear
3:54 AM 62.1 °F 55.0 °F 78% 29.91 in 10.0 mi East 9.2 mph - N/A   Clear
4:54 AM 63.0 °F 55.0 °F 75% 29.93 in 10.0 mi North - - N/A   Clear
5:54 AM 61.0 °F 55.9 °F 83% 29.95 in 10.0 mi East 8.1 mph - N/A   Clear
6:54 AM 64.9 °F 55.0 °F 70% 29.97 in 10.0 mi SE 8.1 mph - N/A   Clear
7:54 AM 66.0 °F 55.0 °F 68% 29.99 in 10.0 mi SE 8.1 mph - N/A   Clear
8:54 AM 66.0 °F 57.0 °F 73% 30.00 in 10.0 mi East 10.4 mph - N/A   Clear
9:54 AM 73.0 °F 55.9 °F 55% 30.00 in 10.0 mi SE 16.1 mph - N/A   Clear
10:54 AM 75.0 °F 55.9 °F 51% 29.99 in 10.0 mi SSE 18.4 mph 27.6 mph N/A   Clear
11:54 AM 75.9 °F 54.0 °F 46% 29.97 in 10.0 mi South 21.9 mph 32.2 mph N/A   Clear
12:54 PM 77.0 °F 55.9 °F 48% 29.96 in 10.0 mi South 21.9 mph 32.2 mph N/A   Partly Cloudy
1:54 PM 78.1 °F 55.9 °F 46% 29.95 in 10.0 mi South 23.0 mph 31.1 mph N/A   Clear
2:54 PM 78.1 °F 55.9 °F 46% 29.93 in 10.0 mi SSE 19.6 mph - N/A   Partly Cloudy
3:54 PM 79.0 °F 55.9 °F 45% 29.91 in 10.0 mi SSE 24.2 mph - N/A   Scattered Clouds
4:54 PM 79.0 °F 54.0 °F 42% 29.90 in 10.0 mi SSE 26.5 mph 33.4 mph N/A   Partly Cloudy
5:54 PM 75.9 °F 55.0 °F 48% 29.90 in 10.0 mi SSE 11.5 mph 23.0 mph N/A   Clear
6:54 PM 75.0 °F 55.0 °F 50% 29.90 in 10.0 mi SE 11.5 mph - N/A   Partly Cloudy
7:54 PM 73.0 °F 55.9 °F 55% 29.90 in 10.0 mi SE 9.2 mph - N/A   Mostly Cloudy
8:54 PM 73.0 °F 55.9 °F 55% 29.92 in 10.0 mi ESE 6.9 mph - N/A   Overcast
9:54 PM 75.0 °F 55.0 °F 50% 29.91 in 10.0 mi ESE 12.7 mph - N/A   Overcast
10:54 PM 71.1 °F 55.9 °F 59% 29.92 in 10.0 mi ESE 12.7 mph - N/A   Scattered Clouds
11:54 PM 71.1 °F 55.9 °F 59% 29.93 in 10.0 mi ESE 12.7 mph - N/A   Overcast